| time (UTC) | temp F | wind direction | speed knots | gust knots | rain 1hr in | rain 24hr in | rain mn in | humidity % | barometer mb |
| 20260508005527 | 45 | 337 | 2.6 | 2.6 | 0.00 | 0.00 | 0.00 | 79 | 1020.2 |
| 20260508004027 | 46 | 337 | 0.0 | 0.0 | 0.00 | 0.00 | 0.00 | 78 | 1020.3 |
| 20260508002527 | 46 | 337 | 0.0 | 0.0 | 0.00 | 0.00 | 0.00 | 78 | 1020.2 |
| 20260508001027 | 46 | 315 | 0.0 | 0.9 | 0.00 | 0.00 | 0.00 | 77 | 1020.3 |
| 20260507235527 | 47 | 292 | 1.7 | 1.7 | 0.00 | 0.00 | 0.00 | 76 | 1020.3 |
| 20260507234027 | 48 | 337 | 0.0 | 0.9 | 0.00 | 0.00 | 0.00 | 74 | 1020.4 |
| 20260507232527 | 49 | 337 | 0.0 | 0.0 | 0.00 | 0.00 | 0.00 | 73 | 1020.7 |
| 20260507231027 | 50 | 337 | 0.0 | 0.9 | 0.00 | 0.00 | 0.00 | 73 | 1020.7 |
| 20260507225527 | 50 | 292 | 1.7 | 2.6 | 0.00 | 0.00 | 0.00 | 74 | 1020.8 |
| 20260507224027 | 50 | 337 | 3.5 | 3.5 | 0.00 | 0.00 | 0.00 | 74 | 1020.8 |
| 20260507222527 | 49 | 292 | 1.7 | 1.7 | 0.00 | 0.00 | 0.00 | 75 | 1020.9 |
| 20260507221028 | 49 | 337 | 0.9 | 0.9 | 0.00 | 0.00 | 0.00 | 76 | 1020.7 |
| 20260507215527 | 48 | 337 | 3.5 | 3.5 | 0.00 | 0.00 | 0.00 | 75 | 1020.7 |
| 20260507214028 | 48 | 292 | 0.9 | 3.5 | 0.00 | 0.00 | 0.00 | 75 | 1020.7 |
| 20260507212528 | 49 | 315 | 2.6 | 2.6 | 0.00 | 0.00 | 0.00 | 74 | 1020.4 |
| 20260507211028 | 49 | 337 | 2.6 | 2.6 | 0.00 | 0.00 | 0.00 | 73 | 1020.2 |
| 20260507205528 | 49 | 315 | 2.6 | 2.6 | 0.00 | 0.00 | 0.00 | 72 | 1020.1 |
| 20260507204028 | 50 | 315 | 0.0 | 1.7 | 0.00 | 0.00 | 0.00 | 71 | 1020.1 |
| 20260507202528 | 51 | 315 | 0.9 | 1.7 | 0.00 | 0.00 | 0.00 | 71 | 1020.0 |
| 20260507201028 | 51 | 292 | 0.9 | 1.7 | 0.00 | 0.00 | 0.00 | 70 | 1019.7 |
| 20260507195528 | 51 | 337 | 0.0 | 0.0 | 0.00 | 0.00 | 0.00 | 68 | 1019.6 |
| 20260507194028 | 52 | 292 | 0.0 | 0.0 | 0.00 | 0.00 | 0.00 | 65 | 1019.4 |
| 20260507192528 | 53 | 292 | 0.0 | 0.0 | 0.00 | 0.00 | 0.00 | 64 | 1019.1 |
| 20260507191028 | 55 | 292 | 0.0 | 0.0 | 0.00 | 0.00 | 0.00 | 60 | 1019.0 |
| 20260507185528 | 57 | 315 | 0.0 | 0.0 | 0.00 | 0.00 | 0.00 | 58 | 1018.7 |
| 20260507184028 | 59 | 292 | 0.9 | 0.9 | 0.00 | 0.00 | 0.00 | 55 | 1018.4 |
| 20260507182528 | 60 | 270 | 3.5 | 3.5 | 0.00 | 0.00 | 0.00 | 53 | 1018.1 |
| 20260507181028 | 61 | 315 | 3.5 | 7.0 | 0.00 | 0.00 | 0.00 | 51 | 1017.9 |
| 20260507175528 | 64 | 292 | 7.0 | 7.0 | 0.00 | 0.00 | 0.00 | 48 | 1017.6 |
| 20260507174028 | 68 | 270 | 0.0 | 2.6 | 0.00 | 0.00 | 0.00 | 45 | 1017.3 |
| 20260507172528 | 69 | 270 | 5.2 | 5.2 | 0.00 | 0.00 | 0.00 | 45 | 1017.1 |
| 20260507171028 | 68 | 270 | 0.0 | 2.6 | 0.00 | 0.00 | 0.00 | 46 | 1017.1 |
| 20260507165528 | 68 | 270 | 2.6 | 2.6 | 0.00 | 0.00 | 0.00 | 47 | 1017.2 |
| 20260507164028 | 68 | 225 | 0.0 | 3.5 | 0.00 | 0.00 | 0.00 | 46 | 1017.2 |
| 20260507162528 | 69 | 292 | 9.6 | 9.6 | 0.00 | 0.00 | 0.00 | 45 | 1017.3 |
| 20260507161028 | 70 | 247 | 0.9 | 7.0 | 0.00 | 0.00 | 0.00 | 43 | 1017.2 |
| 20260507155528 | 70 | 270 | 0.9 | 0.9 | 0.00 | 0.00 | 0.00 | 43 | 1017.1 |
| 20260507154028 | 69 | 247 | 7.0 | 7.0 | 0.00 | 0.00 | 0.00 | 45 | 1017.1 |
| 20260507152528 | 69 | 292 | 3.5 | 5.2 | 0.00 | 0.00 | 0.00 | 44 | 1017.1 |
| 20260507151028 | 71 | 247 | 0.0 | 2.6 | 0.00 | 0.00 | 0.00 | 43 | 1017.0 |
| 20260507145528 | 71 | 225 | 1.7 | 5.2 | 0.00 | 0.00 | 0.00 | 43 | 1016.9 |
| 20260507144028 | 71 | 225 | 0.9 | 1.7 | 0.00 | 0.00 | 0.00 | 42 | 1017.0 |
| 20260507142528 | 72 | 247 | 2.6 | 11.3 | 0.00 | 0.00 | 0.00 | 41 | 1017.0 |
| 20260507141028 | 72 | 292 | 4.3 | 7.0 | 0.00 | 0.00 | 0.00 | 41 | 1016.9 |
| 20260507135528 | 73 | 247 | 1.7 | 4.3 | 0.00 | 0.00 | 0.00 | 40 | 1016.8 |
| 20260507134028 | 73 | 247 | 10.4 | 10.4 | 0.00 | 0.00 | 0.00 | 39 | 1016.8 |
| 20260507132528 | 73 | 202 | 0.0 | 3.5 | 0.00 | 0.00 | 0.00 | 39 | 1016.7 |
| 20260507131028 | 73 | 292 | 3.5 | 3.5 | 0.00 | 0.00 | 0.00 | 40 | 1016.6 |
| 20260507125528 | 72 | 225 | 6.1 | 6.1 | 0.00 | 0.00 | 0.00 | 41 | 1016.7 |
| 20260507124028 | 73 | 292 | 4.3 | 4.3 | 0.00 | 0.00 | 0.00 | 40 | 1016.6 |
| 20260507122528 | 73 | 270 | 8.7 | 8.7 | 0.00 | 0.00 | 0.00 | 40 | 1016.3 |
| 20260507121028 | 74 | 202 | 0.9 | 2.6 | 0.00 | 0.00 | 0.00 | 39 | 1016.4 |
| 20260507115528 | 74 | 135 | 2.6 | 5.2 | 0.00 | 0.00 | 0.00 | 39 | 1016.7 |
| 20260507114028 | 72 | 292 | 5.2 | 7.8 | 0.00 | 0.00 | 0.00 | 41 | 1016.9 |
| 20260507112528 | 72 | 292 | 13.9 | 13.9 | 0.00 | 0.00 | 0.00 | 40 | 1016.9 |
| 20260507111028 | 74 | 270 | 11.3 | 11.3 | 0.00 | 0.00 | 0.00 | 39 | 1016.9 |
| 20260507105528 | 75 | 292 | 5.2 | 5.2 | 0.00 | 0.00 | 0.00 | 38 | 1017.0 |
| 20260507104028 | 75 | 247 | 5.2 | 5.2 | 0.00 | 0.00 | 0.00 | 38 | 1017.0 |
| 20260507102528 | 73 | 0 | 3.5 | 3.5 | 0.00 | 0.00 | 0.00 | 39 | 1017.1 |
| 20260507101028 | 75 | 270 | 3.5 | 10.4 | 0.00 | 0.00 | 0.00 | 37 | 1017.1 |
| 20260507095528 | 76 | 225 | 2.6 | 7.8 | 0.00 | 0.00 | 0.00 | 35 | 1017.3 |
| 20260507094028 | 80 | 202 | 1.7 | 7.0 | 0.00 | 0.00 | 0.00 | 34 | 1017.1 |
| 20260507092529 | 82 | 292 | 7.8 | 12.2 | 0.00 | 0.00 | 0.00 | 33 | 1017.1 |
| 20260507091029 | 77 | 292 | 0.9 | 12.2 | 0.00 | 0.00 | 0.00 | 35 | 1017.1 |
| 20260507085529 | 83 | 315 | 9.6 | 9.6 | 0.00 | 0.00 | 0.00 | 32 | 1017.1 |
| 20260507084029 | 84 | 292 | 1.7 | 5.2 | 0.00 | 0.00 | 0.00 | 32 | 1017.0 |
| 20260507082529 | 82 | 247 | 7.0 | 7.0 | 0.00 | 0.00 | 0.00 | 33 | 1016.8 |
| 20260507081029 | 86 | 292 | 0.9 | 10.4 | 0.00 | 0.00 | 0.00 | 29 | 1016.7 |
| 20260507075529 | 87 | 247 | 1.7 | 3.5 | 0.00 | 0.00 | 0.00 | 31 | 1016.5 |
| 20260507074029 | 88 | 270 | 12.2 | 12.2 | 0.00 | 0.00 | 0.00 | 31 | 1016.4 |
| 20260507072529 | 85 | 337 | 1.7 | 7.0 | 0.00 | 0.00 | 0.00 | 32 | 1016.5 |
| 20260507071029 | 84 | 292 | 0.0 | 4.3 | 0.00 | 0.00 | 0.00 | 33 | 1016.5 |
| 20260507065529 | 85 | 337 | 4.3 | 4.3 | 0.00 | 0.00 | 0.00 | 33 | 1016.6 |
| 20260507064029 | 88 | 270 | 0.9 | 12.2 | 0.00 | 0.00 | 0.00 | 32 | 1016.7 |
| 20260507062529 | 87 | 292 | 2.6 | 2.6 | 0.00 | 0.00 | 0.00 | 34 | 1016.7 |
| 20260507061029 | 87 | 247 | 1.7 | 1.7 | 0.00 | 0.00 | 0.00 | 35 | 1016.7 |
| 20260507055529 | 75 | 247 | 0.0 | 4.3 | 0.00 | 0.00 | 0.00 | 50 | 1016.7 |
| 20260507054029 | 64 | 270 | 0.0 | 1.7 | 0.00 | 0.00 | 0.00 | 65 | 1016.6 |
| 20260507052529 | 57 | 315 | 0.0 | 0.0 | 0.00 | 0.00 | 0.00 | 78 | 1016.4 |
| 20260507051029 | 53 | 315 | 0.0 | 0.0 | 0.00 | 0.00 | 0.00 | 80 | 1016.4 |
| 20260507045529 | 50 | 292 | 0.0 | 0.0 | 0.00 | 0.00 | 0.00 | 82 | 1016.3 |
| 20260507044029 | 49 | 292 | 1.7 | 1.7 | 0.00 | 0.00 | 0.00 | 81 | 1016.0 |
| 20260507042529 | 48 | 292 | 0.0 | 0.0 | 0.00 | 0.00 | 0.00 | 81 | 1016.1 |
| 20260507041029 | 49 | 270 | 0.0 | 0.0 | 0.00 | 0.00 | 0.00 | 80 | 1015.7 |
| 20260507035529 | 49 | 180 | 0.0 | 0.0 | 0.00 | 0.00 | 0.00 | 80 | 1015.7 |
| 20260507034029 | 50 | 180 | 0.9 | 0.9 | 0.00 | 0.00 | 0.00 | 80 | 1015.5 |
| 20260507032529 | 49 | 180 | 1.7 | 1.7 | 0.00 | 0.00 | 0.00 | 80 | 1015.3 |
| 20260507031029 | 49 | 270 | 0.0 | 0.0 | 0.00 | 0.00 | 0.00 | 79 | 1015.2 |
| 20260507025529 | 49 | 247 | 0.0 | 0.0 | 0.00 | 0.00 | 0.00 | 79 | 1015.1 |
| 20260507024030 | 50 | 292 | 0.0 | 0.0 | 0.00 | 0.00 | 0.00 | 78 | 1015.1 |
| 20260507022529 | 50 | 247 | 0.9 | 0.9 | 0.00 | 0.00 | 0.00 | 78 | 1015.1 |
| 20260507021029 | 50 | 247 | 0.0 | 0.0 | 0.00 | 0.00 | 0.00 | 77 | 1015.1 |
| 20260507015529 | 50 | 292 | 0.0 | 0.0 | 0.00 | 0.00 | 0.00 | 77 | 1015.1 |
| 20260507014029 | 51 | 292 | 0.0 | 0.0 | 0.00 | 0.00 | 0.00 | 75 | 1014.9 |
| 20260507012529 | 53 | 270 | 0.0 | 0.0 | 0.00 | 0.00 | 0.00 | 75 | 1014.9 |
| 20260507011029 | 53 | 270 | 1.7 | 6.1 | 0.00 | 0.00 | 0.00 | 75 | 1014.8 |